Year,Month,Day,Hour,Minute,Value (Times are PST for temperature in C)
2019,03,18,00,00,3.30
2019,03,18,00,01,3.30
2019,03,18,00,02,3.30
2019,03,18,00,03,3.30
2019,03,18,00,04,3.30
2019,03,18,00,05,3.30
2019,03,18,00,06,3.30
2019,03,18,00,07,3.30
2019,03,18,00,08,3.30
2019,03,18,00,09,3.30
2019,03,18,00,10,3.30
2019,03,18,00,11,3.30
2019,03,18,00,12,3.30
2019,03,18,00,13,3.30
2019,03,18,00,14,3.30
2019,03,18,00,15,3.30
2019,03,18,00,16,3.30
2019,03,18,00,17,3.20
2019,03,18,00,18,3.20
2019,03,18,00,19,3.20
2019,03,18,00,20,3.20
2019,03,18,00,21,3.20
2019,03,18,00,22,3.20
2019,03,18,00,23,3.20
2019,03,18,00,24,3.20
2019,03,18,00,25,3.20
2019,03,18,00,26,3.20
2019,03,18,00,27,3.20
2019,03,18,00,28,3.20
2019,03,18,00,29,3.20
2019,03,18,00,30,3.20
2019,03,18,00,31,3.20
2019,03,18,00,32,3.20
2019,03,18,00,33,3.20
2019,03,18,00,34,3.20
2019,03,18,00,35,3.20
2019,03,18,00,36,3.20
2019,03,18,00,37,3.30
2019,03,18,00,38,3.30
2019,03,18,00,39,3.30
2019,03,18,00,40,3.30
2019,03,18,00,41,3.30
2019,03,18,00,42,3.30
2019,03,18,00,43,3.30
2019,03,18,00,44,3.30
2019,03,18,00,45,3.30
2019,03,18,00,46,3.30
2019,03,18,00,47,3.30
2019,03,18,00,48,3.30
2019,03,18,00,49,3.30
2019,03,18,00,50,3.30
2019,03,18,00,51,3.30
2019,03,18,00,52,3.30
2019,03,18,00,53,3.20
2019,03,18,00,54,3.20
2019,03,18,00,55,3.20
2019,03,18,00,56,3.20
2019,03,18,00,57,3.20
2019,03,18,00,58,3.20
2019,03,18,00,59,3.20
2019,03,18,01,00,3.20
2019,03,18,01,01,3.10
2019,03,18,01,02,3.10
2019,03,18,01,03,3.10
2019,03,18,01,04,3.10
2019,03,18,01,05,3.00
2019,03,18,01,06,3.00
2019,03,18,01,07,3.00
2019,03,18,01,08,3.00
2019,03,18,01,09,3.00
2019,03,18,01,10,3.00
2019,03,18,01,11,3.00
2019,03,18,01,12,3.00
2019,03,18,01,13,3.00
2019,03,18,01,14,3.00
2019,03,18,01,15,3.00
2019,03,18,01,16,3.00
2019,03,18,01,17,3.00
2019,03,18,01,18,3.00
2019,03,18,01,19,3.00
2019,03,18,01,20,3.00
2019,03,18,01,21,3.00
2019,03,18,01,22,3.00
2019,03,18,01,23,3.00
2019,03,18,01,24,3.00
2019,03,18,01,25,2.90
2019,03,18,01,26,2.90
2019,03,18,01,27,2.90
2019,03,18,01,28,2.90
2019,03,18,01,29,2.90
2019,03,18,01,30,2.80
2019,03,18,01,31,2.80
2019,03,18,01,32,2.80
2019,03,18,01,33,2.80
2019,03,18,01,34,2.70
2019,03,18,01,35,2.70
2019,03,18,01,36,2.70
2019,03,18,01,37,2.70
2019,03,18,01,38,2.60
2019,03,18,01,39,2.60
2019,03,18,01,40,2.60
2019,03,18,01,41,2.60
2019,03,18,01,42,2.60
2019,03,18,01,43,2.60
2019,03,18,01,44,2.60
2019,03,18,01,45,2.60
2019,03,18,01,46,2.60
2019,03,18,01,47,2.70
2019,03,18,01,48,2.70
2019,03,18,01,49,2.70
2019,03,18,01,50,2.70
2019,03,18,01,51,2.70
2019,03,18,01,52,2.70
2019,03,18,01,53,2.70
2019,03,18,01,54,2.70
2019,03,18,01,55,2.60
2019,03,18,01,56,2.60
2019,03,18,01,57,2.60
2019,03,18,01,58,2.50
2019,03,18,01,59,2.50
2019,03,18,02,00,2.40
2019,03,18,02,01,2.40
2019,03,18,02,02,2.40
2019,03,18,02,03,2.30
2019,03,18,02,04,2.30
2019,03,18,02,05,2.30
2019,03,18,02,06,2.30
2019,03,18,02,07,2.30
2019,03,18,02,08,2.30
2019,03,18,02,09,2.30
2019,03,18,02,10,2.30
2019,03,18,02,11,2.30
2019,03,18,02,12,2.30
2019,03,18,02,13,2.30
2019,03,18,02,14,2.20
2019,03,18,02,15,2.20
2019,03,18,02,16,2.20
2019,03,18,02,17,2.10
2019,03,18,02,18,2.10
2019,03,18,02,19,2.10
2019,03,18,02,20,2.10
2019,03,18,02,21,2.10
2019,03,18,02,22,2.00
2019,03,18,02,23,2.00
2019,03,18,02,24,2.00
2019,03,18,02,25,2.00
2019,03,18,02,26,2.00
2019,03,18,02,27,1.90
2019,03,18,02,28,1.90
2019,03,18,02,29,1.90
2019,03,18,02,30,1.90
2019,03,18,02,31,1.90
2019,03,18,02,32,1.90
2019,03,18,02,33,1.90
2019,03,18,02,34,1.90
2019,03,18,02,35,2.00
2019,03,18,02,36,2.00
2019,03,18,02,37,2.00
2019,03,18,02,38,2.10
2019,03,18,02,39,2.10
2019,03,18,02,40,2.10
2019,03,18,02,41,2.10
2019,03,18,02,42,2.10
2019,03,18,02,43,2.10
2019,03,18,02,44,2.10
2019,03,18,02,45,2.10
2019,03,18,02,46,2.10
2019,03,18,02,47,2.10
2019,03,18,02,48,2.10
2019,03,18,02,49,2.10
2019,03,18,02,50,2.10
2019,03,18,02,51,2.10
2019,03,18,02,52,2.10
2019,03,18,02,53,2.10
2019,03,18,02,54,2.10
2019,03,18,02,55,2.10
2019,03,18,02,56,2.10
2019,03,18,02,57,2.10
2019,03,18,02,58,2.10
2019,03,18,02,59,2.10
2019,03,18,03,00,2.10
2019,03,18,03,01,2.10
2019,03,18,03,02,2.10
2019,03,18,03,03,2.00
2019,03,18,03,04,2.00
2019,03,18,03,05,2.00
2019,03,18,03,06,2.00
2019,03,18,03,07,2.00
2019,03,18,03,08,2.00
2019,03,18,03,09,2.10
2019,03,18,03,10,2.10
2019,03,18,03,11,2.10
2019,03,18,03,12,2.10
2019,03,18,03,13,2.10
2019,03,18,03,14,2.10
2019,03,18,03,15,2.20
2019,03,18,03,16,2.20
2019,03,18,03,17,2.20
2019,03,18,03,18,2.20
2019,03,18,03,19,2.20
2019,03,18,03,20,2.20
2019,03,18,03,21,2.20
2019,03,18,03,22,2.20
2019,03,18,03,23,2.20
2019,03,18,03,24,2.20
2019,03,18,03,25,2.20
2019,03,18,03,26,2.20
2019,03,18,03,27,2.20
2019,03,18,03,28,2.10
2019,03,18,03,29,2.10
2019,03,18,03,30,2.10
2019,03,18,03,31,2.00
2019,03,18,03,32,2.00
2019,03,18,03,33,2.00
2019,03,18,03,34,2.00
2019,03,18,03,35,1.90
2019,03,18,03,36,1.90
2019,03,18,03,37,1.90
2019,03,18,03,38,1.90
2019,03,18,03,39,1.90
2019,03,18,03,40,1.90
2019,03,18,03,41,1.90
2019,03,18,03,42,1.90
2019,03,18,03,43,1.90
2019,03,18,03,44,1.80
2019,03,18,03,45,1.80
2019,03,18,03,46,1.80
2019,03,18,03,47,1.80
2019,03,18,03,48,1.80
2019,03,18,03,49,1.80
2019,03,18,03,50,1.90
2019,03,18,03,51,1.90
2019,03,18,03,52,2.00
2019,03,18,03,53,2.00
2019,03,18,03,54,2.10
2019,03,18,03,55,2.10
2019,03,18,03,56,2.10
2019,03,18,03,57,2.10
2019,03,18,03,58,2.20
2019,03,18,03,59,2.10
2019,03,18,04,00,2.10
2019,03,18,04,01,2.10
2019,03,18,04,02,2.10
2019,03,18,04,03,2.10
2019,03,18,04,04,2.10
2019,03,18,04,05,2.00
2019,03,18,04,06,2.00
2019,03,18,04,07,2.00
2019,03,18,04,08,1.90
2019,03,18,04,09,1.90
2019,03,18,04,10,1.90
2019,03,18,04,11,1.90
2019,03,18,04,12,1.90
2019,03,18,04,13,1.90
2019,03,18,04,14,1.90
2019,03,18,04,15,1.90
2019,03,18,04,16,1.90
2019,03,18,04,17,1.90
2019,03,18,04,18,1.90
2019,03,18,04,19,2.00
2019,03,18,04,20,2.10
2019,03,18,04,21,2.10
2019,03,18,04,22,2.10
2019,03,18,04,23,2.20
2019,03,18,04,24,2.20
2019,03,18,04,25,2.20
2019,03,18,04,26,2.20
2019,03,18,04,27,2.20
2019,03,18,04,28,2.20
2019,03,18,04,29,2.10
2019,03,18,04,30,2.10
2019,03,18,04,31,2.10
2019,03,18,04,32,2.10
2019,03,18,04,33,2.10
2019,03,18,04,34,2.10
2019,03,18,04,35,2.00
2019,03,18,04,36,2.00
2019,03,18,04,37,1.90
2019,03,18,04,38,1.90
2019,03,18,04,39,1.90
2019,03,18,04,40,1.90
2019,03,18,04,41,1.90
2019,03,18,04,42,1.90
2019,03,18,04,43,1.90
2019,03,18,04,44,1.90
2019,03,18,04,45,1.90
2019,03,18,04,46,1.90
2019,03,18,04,47,1.90
2019,03,18,04,48,1.90
2019,03,18,04,49,1.90
2019,03,18,04,50,1.80
2019,03,18,04,51,1.80
2019,03,18,04,52,1.80
2019,03,18,04,53,1.80
2019,03,18,04,54,1.80
2019,03,18,04,55,1.80
2019,03,18,04,56,1.80
2019,03,18,04,57,1.90
2019,03,18,04,58,1.90
2019,03,18,04,59,1.90
2019,03,18,05,00,1.90
2019,03,18,05,01,1.90
2019,03,18,05,02,1.90
2019,03,18,05,03,2.00
2019,03,18,05,04,2.00
2019,03,18,05,05,2.00
2019,03,18,05,06,2.00
2019,03,18,05,07,2.00
2019,03,18,05,08,2.00
2019,03,18,05,09,2.00
2019,03,18,05,10,2.00
2019,03,18,05,11,1.90
2019,03,18,05,12,1.90
2019,03,18,05,13,1.90
2019,03,18,05,14,1.80
2019,03,18,05,15,1.90
2019,03,18,05,16,1.90
2019,03,18,05,17,1.80
2019,03,18,05,18,1.80
2019,03,18,05,19,1.80
2019,03,18,05,20,1.80
2019,03,18,05,21,1.80
2019,03,18,05,22,1.80
2019,03,18,05,23,1.80
2019,03,18,05,24,1.80
2019,03,18,05,25,1.80
2019,03,18,05,26,1.80
2019,03,18,05,27,1.80
2019,03,18,05,28,1.70
2019,03,18,05,29,1.70
2019,03,18,05,30,1.70
2019,03,18,05,31,1.60
2019,03,18,05,32,1.60
2019,03,18,05,33,1.60
2019,03,18,05,34,1.50
2019,03,18,05,35,1.50
2019,03,18,05,36,1.50
2019,03,18,05,37,1.50
2019,03,18,05,38,1.50
2019,03,18,05,39,1.50
2019,03,18,05,40,1.50
2019,03,18,05,41,1.50
2019,03,18,05,42,1.50
2019,03,18,05,43,1.50
2019,03,18,05,44,1.60
2019,03,18,05,45,1.70
2019,03,18,05,46,1.70
2019,03,18,05,47,1.80
2019,03,18,05,48,1.80
2019,03,18,05,49,1.80
2019,03,18,05,50,2.00
2019,03,18,05,51,2.10
2019,03,18,05,52,2.10
2019,03,18,05,53,2.20
2019,03,18,05,54,2.30
2019,03,18,05,55,2.30
2019,03,18,05,56,2.30
2019,03,18,05,57,2.30
2019,03,18,05,58,2.30
2019,03,18,05,59,2.40
2019,03,18,06,00,2.40
2019,03,18,06,01,2.40
2019,03,18,06,02,2.30
2019,03,18,06,03,2.30
2019,03,18,06,04,2.30
2019,03,18,06,05,2.40
2019,03,18,06,06,2.40
2019,03,18,06,07,2.40
2019,03,18,06,08,2.40
2019,03,18,06,09,2.40
2019,03,18,06,10,2.40
2019,03,18,06,11,2.40
2019,03,18,06,12,2.40
2019,03,18,06,13,2.50
2019,03,18,06,14,2.60
2019,03,18,06,15,2.60
2019,03,18,06,16,2.60
2019,03,18,06,17,2.60
2019,03,18,06,18,2.50
2019,03,18,06,19,2.50
2019,03,18,06,20,2.40
2019,03,18,06,21,2.40
2019,03,18,06,22,2.40
2019,03,18,06,23,2.40
2019,03,18,06,24,2.40
2019,03,18,06,25,2.30
2019,03,18,06,26,2.30
2019,03,18,06,27,2.20
2019,03,18,06,28,2.20
2019,03,18,06,29,2.20
2019,03,18,06,30,2.20
2019,03,18,06,31,2.20
2019,03,18,06,32,2.20
2019,03,18,06,33,2.20
2019,03,18,06,34,2.30
2019,03,18,06,35,2.30
2019,03,18,06,36,2.30
2019,03,18,06,37,2.30
2019,03,18,06,38,2.40
2019,03,18,06,39,2.40
2019,03,18,06,40,2.40
2019,03,18,06,41,2.40
2019,03,18,06,42,2.40
2019,03,18,06,43,2.30
2019,03,18,06,44,2.30
2019,03,18,06,45,2.20
2019,03,18,06,46,2.20
2019,03,18,06,47,2.20
2019,03,18,06,48,2.20
2019,03,18,06,49,2.10
2019,03,18,06,50,2.10
2019,03,18,06,51,2.00
2019,03,18,06,52,1.90
2019,03,18,06,53,1.90
2019,03,18,06,54,1.80
2019,03,18,06,55,1.80
2019,03,18,06,56,1.70
2019,03,18,06,57,1.70
2019,03,18,06,58,1.70
2019,03,18,06,59,1.70
2019,03,18,07,00,1.70
2019,03,18,07,01,1.70
2019,03,18,07,02,1.70
2019,03,18,07,03,1.70
2019,03,18,07,04,1.70
2019,03,18,07,05,1.70
2019,03,18,07,06,1.70
2019,03,18,07,07,1.80
2019,03,18,07,08,1.80
2019,03,18,07,09,1.70
2019,03,18,07,10,1.70
2019,03,18,07,11,1.70
2019,03,18,07,12,1.80
2019,03,18,07,13,1.80
2019,03,18,07,14,1.80
2019,03,18,07,15,1.80
2019,03,18,07,16,1.80
2019,03,18,07,17,1.80
2019,03,18,07,18,1.70
2019,03,18,07,19,1.70
2019,03,18,07,20,1.70
2019,03,18,07,21,1.70
2019,03,18,07,22,1.80
2019,03,18,07,23,1.80
2019,03,18,07,24,1.90
2019,03,18,07,25,1.90
2019,03,18,07,26,2.00
2019,03,18,07,27,2.00
2019,03,18,07,28,2.00
2019,03,18,07,29,2.00
2019,03,18,07,30,2.00
2019,03,18,07,31,2.00
2019,03,18,07,32,2.00
2019,03,18,07,33,2.10
2019,03,18,07,34,2.10
2019,03,18,07,35,2.20
2019,03,18,07,36,2.20
2019,03,18,07,37,2.20
2019,03,18,07,38,2.20
2019,03,18,07,39,2.10
2019,03,18,07,40,2.10
2019,03,18,07,41,2.10
2019,03,18,07,42,2.00
2019,03,18,07,43,2.00
2019,03,18,07,44,2.00
2019,03,18,07,45,2.00
2019,03,18,07,46,2.00
2019,03,18,07,47,2.00
2019,03,18,07,48,2.00
2019,03,18,07,49,2.00
2019,03,18,07,50,2.00
2019,03,18,07,51,2.10
2019,03,18,07,52,2.10
2019,03,18,07,53,2.20
2019,03,18,07,54,2.30
2019,03,18,07,55,2.30
2019,03,18,07,56,2.40
2019,03,18,07,57,2.50
2019,03,18,07,58,2.50
2019,03,18,07,59,2.50
2019,03,18,08,00,2.50
2019,03,18,08,01,2.50
2019,03,18,08,02,2.50
2019,03,18,08,03,2.60
2019,03,18,08,04,2.60
2019,03,18,08,05,2.60
2019,03,18,08,06,2.70
2019,03,18,08,07,2.70
2019,03,18,08,08,2.70
2019,03,18,08,09,2.80
2019,03,18,08,10,2.80
2019,03,18,08,11,2.90
2019,03,18,08,12,3.00
2019,03,18,08,13,3.10
2019,03,18,08,14,3.20
2019,03,18,08,15,3.30
2019,03,18,08,16,3.50
2019,03,18,08,17,3.60
2019,03,18,08,18,3.70
2019,03,18,08,19,3.80
2019,03,18,08,20,3.80
2019,03,18,08,21,3.90
2019,03,18,08,22,4.00
2019,03,18,08,23,4.00
2019,03,18,08,24,4.00
2019,03,18,08,25,4.00
2019,03,18,08,26,4.10
2019,03,18,08,27,4.10
2019,03,18,08,28,4.20
2019,03,18,08,29,4.30
2019,03,18,08,30,4.30
2019,03,18,08,31,4.40
2019,03,18,08,32,4.50
2019,03,18,08,33,4.60
2019,03,18,08,34,4.60
2019,03,18,08,35,4.70
2019,03,18,08,36,4.70
2019,03,18,08,37,4.80
2019,03,18,08,38,4.80
2019,03,18,08,39,4.80
2019,03,18,08,40,4.80
2019,03,18,08,41,4.80
2019,03,18,08,42,4.80
2019,03,18,08,43,4.80
2019,03,18,08,44,4.80
2019,03,18,08,45,4.80
2019,03,18,08,46,4.80
2019,03,18,08,47,4.80
2019,03,18,08,48,4.80
2019,03,18,08,49,4.90
2019,03,18,08,50,4.90
2019,03,18,08,51,5.00
2019,03,18,08,52,5.00
2019,03,18,08,53,5.00
2019,03,18,08,54,5.10
2019,03,18,08,55,5.20
2019,03,18,08,56,5.20
2019,03,18,08,57,5.30
2019,03,18,08,58,5.30
2019,03,18,08,59,5.40
2019,03,18,09,00,5.40
2019,03,18,09,01,5.50
2019,03,18,09,02,5.50
2019,03,18,09,03,5.60
2019,03,18,09,04,5.70
2019,03,18,09,05,5.70
2019,03,18,09,06,5.80
2019,03,18,09,07,5.90
2019,03,18,09,08,6.10
2019,03,18,09,09,6.20
2019,03,18,09,10,6.30
2019,03,18,09,11,6.50
2019,03,18,09,12,6.60
2019,03,18,09,13,6.80
2019,03,18,09,14,6.90
2019,03,18,09,15,7.10
2019,03,18,09,16,7.20
2019,03,18,09,17,7.40
2019,03,18,09,18,7.50
2019,03,18,09,19,7.70
2019,03,18,09,20,7.80
2019,03,18,09,21,8.00
2019,03,18,09,22,8.10
2019,03,18,09,23,8.20
2019,03,18,09,24,8.30
2019,03,18,09,25,8.30
2019,03,18,09,26,8.40
2019,03,18,09,27,8.40
2019,03,18,09,28,8.50
2019,03,18,09,29,8.60
2019,03,18,09,30,8.70
2019,03,18,09,31,8.80
2019,03,18,09,32,8.80
2019,03,18,09,33,8.90
2019,03,18,09,34,9.00
2019,03,18,09,35,9.10
2019,03,18,09,36,9.20
2019,03,18,09,37,9.30
2019,03,18,09,38,9.30
2019,03,18,09,39,9.40
2019,03,18,09,40,9.50
2019,03,18,09,41,9.60
2019,03,18,09,42,9.70
2019,03,18,09,43,9.80
2019,03,18,09,44,9.80
2019,03,18,09,45,9.90
2019,03,18,09,46,10.00
2019,03,18,09,47,10.10
2019,03,18,09,48,10.20
2019,03,18,09,49,10.20
2019,03,18,09,50,10.30
2019,03,18,09,51,10.30
2019,03,18,09,52,10.40
2019,03,18,09,53,10.40
2019,03,18,09,54,10.50
2019,03,18,09,55,10.60
2019,03,18,09,56,10.60
2019,03,18,09,57,10.70
2019,03,18,09,58,10.70
2019,03,18,09,59,10.80
2019,03,18,10,00,10.90
2019,03,18,10,01,10.90
2019,03,18,10,02,11.00
2019,03,18,10,03,11.00
2019,03,18,10,04,11.10
2019,03,18,10,05,11.20
2019,03,18,10,06,11.20
2019,03,18,10,07,11.20
2019,03,18,10,08,11.20
2019,03,18,10,09,11.20
2019,03,18,10,10,11.20
2019,03,18,10,11,11.30
2019,03,18,10,12,11.30
2019,03,18,10,13,11.30
2019,03,18,10,14,11.30
2019,03,18,10,15,11.40
2019,03,18,10,16,11.50
2019,03,18,10,17,11.60
2019,03,18,10,18,11.70
2019,03,18,10,19,11.70
2019,03,18,10,20,11.70
2019,03,18,10,21,11.80
2019,03,18,10,22,11.80
2019,03,18,10,23,11.80
2019,03,18,10,24,11.80
2019,03,18,10,25,11.80
2019,03,18,10,26,11.80
2019,03,18,10,27,11.90
2019,03,18,10,28,11.90
2019,03,18,10,29,12.00
2019,03,18,10,30,12.10
2019,03,18,10,31,12.30
2019,03,18,10,32,12.50
2019,03,18,10,33,12.60
2019,03,18,10,34,12.80
2019,03,18,10,35,12.90
2019,03,18,10,36,13.00
2019,03,18,10,37,13.20
2019,03,18,10,38,13.30
2019,03,18,10,39,13.40
2019,03,18,10,40,13.60
2019,03,18,10,41,13.70
2019,03,18,10,42,13.80
2019,03,18,10,43,13.80
2019,03,18,10,44,13.90
2019,03,18,10,45,13.90
2019,03,18,10,46,14.00
2019,03,18,10,47,14.00
2019,03,18,10,48,14.10
2019,03,18,10,49,14.10
2019,03,18,10,50,14.10
2019,03,18,10,51,14.20
2019,03,18,10,52,14.20
2019,03,18,10,53,14.20
2019,03,18,10,54,14.30
2019,03,18,10,55,14.30
2019,03,18,10,56,14.30
2019,03,18,10,57,14.30
2019,03,18,10,58,14.30
2019,03,18,10,59,14.30
2019,03,18,11,00,14.40
2019,03,18,11,01,14.40
2019,03,18,11,02,14.50
2019,03,18,11,03,14.60
2019,03,18,11,04,14.60
2019,03,18,11,05,14.70
2019,03,18,11,06,14.70
2019,03,18,11,07,14.70
2019,03,18,11,08,14.70
2019,03,18,11,09,14.80
2019,03,18,11,10,14.80
2019,03,18,11,11,14.90
2019,03,18,11,12,14.90
2019,03,18,11,13,14.90
2019,03,18,11,14,14.90
2019,03,18,11,15,14.90
2019,03,18,11,16,14.90
2019,03,18,11,17,14.90
2019,03,18,11,18,14.80
2019,03,18,11,19,14.80
2019,03,18,11,20,14.80
2019,03,18,11,21,14.80
2019,03,18,11,22,14.80
2019,03,18,11,23,14.80
2019,03,18,11,24,14.90
2019,03,18,11,25,15.00
2019,03,18,11,26,15.00
2019,03,18,11,27,15.10
2019,03,18,11,28,15.10
2019,03,18,11,29,15.20
2019,03,18,11,30,15.20
2019,03,18,11,31,15.20
2019,03,18,11,32,15.20
2019,03,18,11,33,15.20
2019,03,18,11,34,15.20
2019,03,18,11,35,15.20
2019,03,18,11,36,15.20
2019,03,18,11,37,15.20
2019,03,18,11,38,15.30
2019,03,18,11,39,15.30
2019,03,18,11,40,15.40
2019,03,18,11,41,15.50
2019,03,18,11,42,15.60
2019,03,18,11,43,15.60
2019,03,18,11,44,15.70
2019,03,18,11,45,15.80
2019,03,18,11,46,15.80
2019,03,18,11,47,15.80
2019,03,18,11,48,15.80
2019,03,18,11,49,15.80
2019,03,18,11,50,15.80
2019,03,18,11,51,15.90
2019,03,18,11,52,15.90
2019,03,18,11,53,15.90
2019,03,18,11,54,15.90
2019,03,18,11,55,15.90
2019,03,18,11,56,15.90
2019,03,18,11,57,15.90
2019,03,18,11,58,15.90
2019,03,18,11,59,15.80
2019,03,18,12,00,15.80
2019,03,18,12,01,15.80
2019,03,18,12,02,15.80
2019,03,18,12,03,15.90
2019,03,18,12,04,15.90
2019,03,18,12,05,15.90
2019,03,18,12,06,15.90
2019,03,18,12,07,15.90
2019,03,18,12,08,16.00
2019,03,18,12,09,16.10
2019,03,18,12,10,16.10
2019,03,18,12,11,16.20
2019,03,18,12,12,16.20
2019,03,18,12,13,16.30
2019,03,18,12,14,16.30
2019,03,18,12,15,16.30
2019,03,18,12,16,16.40
2019,03,18,12,17,16.30
2019,03,18,12,18,16.30
2019,03,18,12,19,16.30
2019,03,18,12,20,16.30
2019,03,18,12,21,16.30
2019,03,18,12,22,16.20
2019,03,18,12,23,16.20
2019,03,18,12,24,16.20
2019,03,18,12,25,16.10
2019,03,18,12,26,16.10
2019,03,18,12,27,16.10
2019,03,18,12,28,16.10
2019,03,18,12,29,16.10
2019,03,18,12,30,16.20
2019,03,18,12,31,16.20
2019,03,18,12,32,16.20
2019,03,18,12,33,16.30
2019,03,18,12,34,16.30
2019,03,18,12,35,16.40
2019,03,18,12,36,16.40
2019,03,18,12,37,16.50
2019,03,18,12,38,16.50
2019,03,18,12,39,16.60
2019,03,18,12,40,16.60
2019,03,18,12,41,16.60
2019,03,18,12,42,16.60
2019,03,18,12,43,16.70
2019,03,18,12,44,16.70
2019,03,18,12,45,16.70
2019,03,18,12,46,16.80
2019,03,18,12,47,16.90
2019,03,18,12,48,17.00
2019,03,18,12,49,17.00
2019,03,18,12,50,17.10
2019,03,18,12,51,17.20
2019,03,18,12,52,17.30
2019,03,18,12,53,17.30
2019,03,18,12,54,17.40
2019,03,18,12,55,17.50
2019,03,18,12,56,17.60
2019,03,18,12,57,17.70
2019,03,18,12,58,17.70
2019,03,18,12,59,17.80
2019,03,18,13,00,18.00
2019,03,18,13,01,18.10
2019,03,18,13,02,18.20
2019,03,18,13,03,18.20
2019,03,18,13,04,18.30
2019,03,18,13,05,18.30
2019,03,18,13,06,18.30
2019,03,18,13,07,18.30
2019,03,18,13,08,18.30
2019,03,18,13,09,18.30
2019,03,18,13,10,18.40
2019,03,18,13,11,18.40
2019,03,18,13,12,18.40
2019,03,18,13,13,18.40
2019,03,18,13,14,18.40
2019,03,18,13,15,18.40
2019,03,18,13,16,18.40
2019,03,18,13,17,18.40
2019,03,18,13,18,18.40
2019,03,18,13,19,18.40
2019,03,18,13,20,18.40
2019,03,18,13,21,18.40
2019,03,18,13,22,18.40
2019,03,18,13,23,18.40
2019,03,18,13,24,18.40
2019,03,18,13,25,18.40
2019,03,18,13,26,18.40
2019,03,18,13,27,18.40
2019,03,18,13,28,18.40
2019,03,18,13,29,18.50
2019,03,18,13,30,18.50
2019,03,18,13,31,18.60
2019,03,18,13,32,18.60
2019,03,18,13,33,18.70
2019,03,18,13,34,18.70
2019,03,18,13,35,18.70
2019,03,18,13,36,18.70
2019,03,18,13,37,18.70
2019,03,18,13,38,18.70
2019,03,18,13,39,18.70
2019,03,18,13,40,18.80
2019,03,18,13,41,18.80
2019,03,18,13,42,18.80
2019,03,18,13,43,18.70
2019,03,18,13,44,18.70
2019,03,18,13,45,18.70
2019,03,18,13,46,18.70
2019,03,18,13,47,18.80
2019,03,18,13,48,18.90
2019,03,18,13,49,18.90
2019,03,18,13,50,19.00
2019,03,18,13,51,19.10
2019,03,18,13,52,19.10
2019,03,18,13,53,19.10
2019,03,18,13,54,19.00
2019,03,18,13,55,19.00
2019,03,18,13,56,19.00
2019,03,18,13,57,19.00
2019,03,18,13,58,18.90
2019,03,18,13,59,18.80
2019,03,18,14,00,18.70
2019,03,18,14,01,18.60
2019,03,18,14,02,18.50
2019,03,18,14,03,18.40
2019,03,18,14,04,18.40
2019,03,18,14,05,18.30
2019,03,18,14,06,18.30
2019,03,18,14,07,18.20
2019,03,18,14,08,18.10
2019,03,18,14,09,18.00
2019,03,18,14,10,18.00
2019,03,18,14,11,17.90
2019,03,18,14,12,17.90
2019,03,18,14,13,17.80
2019,03,18,14,14,17.80
2019,03,18,14,15,17.80
2019,03,18,14,16,17.70
2019,03,18,14,17,17.70
2019,03,18,14,18,17.70
2019,03,18,14,19,17.70
2019,03,18,14,20,17.70
2019,03,18,14,21,17.60
2019,03,18,14,22,17.60
2019,03,18,14,23,17.50
2019,03,18,14,24,17.40
2019,03,18,14,25,17.30
2019,03,18,14,26,17.20
2019,03,18,14,27,17.00
2019,03,18,14,28,16.90
2019,03,18,14,29,16.70
2019,03,18,14,30,16.60
2019,03,18,14,31,16.50
2019,03,18,14,32,16.30
2019,03,18,14,33,16.20
2019,03,18,14,34,16.10
2019,03,18,14,35,16.00
2019,03,18,14,36,15.90
2019,03,18,14,37,15.80
2019,03,18,14,38,15.70
2019,03,18,14,39,15.50
2019,03,18,14,40,15.40
2019,03,18,14,41,15.20
2019,03,18,14,42,15.10
2019,03,18,14,43,14.90
2019,03,18,14,44,14.80
2019,03,18,14,45,14.70
2019,03,18,14,46,14.60
2019,03,18,14,47,14.60
2019,03,18,14,48,14.60
2019,03,18,14,49,14.60
2019,03,18,14,50,14.70
2019,03,18,14,51,14.70
2019,03,18,14,52,14.70
2019,03,18,14,53,14.70
2019,03,18,14,54,14.70
2019,03,18,14,55,14.70
2019,03,18,14,56,14.70
2019,03,18,14,57,14.70
2019,03,18,14,58,14.60
2019,03,18,14,59,14.60
2019,03,18,15,00,14.50
2019,03,18,15,01,14.50
2019,03,18,15,02,14.50
2019,03,18,15,03,14.50
2019,03,18,15,04,14.50
2019,03,18,15,05,14.50
2019,03,18,15,06,14.50
2019,03,18,15,07,14.60
2019,03,18,15,08,14.60
2019,03,18,15,09,14.70
2019,03,18,15,10,14.80
2019,03,18,15,11,14.90
2019,03,18,15,12,14.90
2019,03,18,15,13,15.00
2019,03,18,15,14,15.10
2019,03,18,15,15,15.10
2019,03,18,15,16,15.20
2019,03,18,15,17,15.20
2019,03,18,15,18,15.30
2019,03,18,15,19,15.30
2019,03,18,15,20,15.40
2019,03,18,15,21,15.40
2019,03,18,15,22,15.50
2019,03,18,15,23,15.60
2019,03,18,15,24,15.60
2019,03,18,15,25,15.70
2019,03,18,15,26,15.80
2019,03,18,15,27,15.90
2019,03,18,15,28,16.00
2019,03,18,15,29,16.10
2019,03,18,15,30,16.20
2019,03,18,15,31,16.20
2019,03,18,15,32,16.20
2019,03,18,15,33,16.30
2019,03,18,15,34,16.40
2019,03,18,15,35,16.60
2019,03,18,15,36,16.70
2019,03,18,15,37,16.80
2019,03,18,15,38,17.00
2019,03,18,15,39,17.10
2019,03,18,15,40,17.20
2019,03,18,15,41,17.40
2019,03,18,15,42,17.60
2019,03,18,15,43,17.80
2019,03,18,15,44,18.00
2019,03,18,15,45,18.20
2019,03,18,15,46,18.30
2019,03,18,15,47,18.50
2019,03,18,15,48,18.60
2019,03,18,15,49,18.70
2019,03,18,15,50,18.90
2019,03,18,15,51,19.00
2019,03,18,15,52,19.10
2019,03,18,15,53,19.20
2019,03,18,15,54,19.30
2019,03,18,15,55,19.40
2019,03,18,15,56,19.40
2019,03,18,15,57,19.50
2019,03,18,15,58,19.50
2019,03,18,15,59,19.60
2019,03,18,16,00,19.50
2019,03,18,16,01,19.50
2019,03,18,16,02,19.50
2019,03,18,16,03,19.50
2019,03,18,16,04,19.60
2019,03,18,16,05,19.60
2019,03,18,16,06,19.60
2019,03,18,16,07,19.70
2019,03,18,16,08,19.70
2019,03,18,16,09,19.70
2019,03,18,16,10,19.70
2019,03,18,16,11,19.70
2019,03,18,16,12,19.70
2019,03,18,16,13,19.80
2019,03,18,16,14,19.80
2019,03,18,16,15,19.80
2019,03,18,16,16,19.80
2019,03,18,16,17,19.80
2019,03,18,16,18,19.80
2019,03,18,16,19,19.80
2019,03,18,16,20,19.80
2019,03,18,16,21,19.70
2019,03,18,16,22,19.70
2019,03,18,16,23,19.70
2019,03,18,16,24,19.70
2019,03,18,16,25,19.60
2019,03,18,16,26,19.60
2019,03,18,16,27,19.60
2019,03,18,16,28,19.50
2019,03,18,16,29,19.50
2019,03,18,16,30,19.50
2019,03,18,16,31,19.40
2019,03,18,16,32,19.40
2019,03,18,16,33,19.40
2019,03,18,16,34,19.40
2019,03,18,16,35,19.40
2019,03,18,16,36,19.30
2019,03,18,16,37,19.30
2019,03,18,16,38,19.30
2019,03,18,16,39,19.30
2019,03,18,16,40,19.20
2019,03,18,16,41,19.20
2019,03,18,16,42,19.20
2019,03,18,16,43,19.10
2019,03,18,16,44,19.10
2019,03,18,16,45,19.10
2019,03,18,16,46,19.10
2019,03,18,16,47,19.10
2019,03,18,16,48,19.00
2019,03,18,16,49,19.00
2019,03,18,16,50,18.90
2019,03,18,16,51,18.90
2019,03,18,16,52,18.90
2019,03,18,16,53,18.90
2019,03,18,16,54,18.80
2019,03,18,16,55,18.80
2019,03,18,16,56,18.80
2019,03,18,16,57,18.80
2019,03,18,16,58,18.80
2019,03,18,16,59,18.80
2019,03,18,17,00,18.80
2019,03,18,17,01,18.80
2019,03,18,17,02,18.80
2019,03,18,17,03,18.80
2019,03,18,17,04,18.70
2019,03,18,17,05,18.70
2019,03,18,17,06,18.70
2019,03,18,17,07,18.70
2019,03,18,17,08,18.60
2019,03,18,17,09,18.60
2019,03,18,17,10,18.50
2019,03,18,17,11,18.40
2019,03,18,17,12,18.40
2019,03,18,17,13,18.30
2019,03,18,17,14,18.30
2019,03,18,17,15,18.30
2019,03,18,17,16,18.30
2019,03,18,17,17,18.30
2019,03,18,17,18,18.20
2019,03,18,17,19,18.20
2019,03,18,17,20,18.20
2019,03,18,17,21,18.20
2019,03,18,17,22,18.20
2019,03,18,17,23,18.20
2019,03,18,17,24,18.20
2019,03,18,17,25,18.20
2019,03,18,17,26,18.20
2019,03,18,17,27,18.20
2019,03,18,17,28,18.20
2019,03,18,17,29,18.20
2019,03,18,17,30,18.20
2019,03,18,17,31,18.20
2019,03,18,17,32,18.20
2019,03,18,17,33,18.20
2019,03,18,17,34,18.30
2019,03,18,17,35,18.30
2019,03,18,17,36,18.30
2019,03,18,17,37,18.30
2019,03,18,17,38,18.30
2019,03,18,17,39,18.30
2019,03,18,17,40,18.30
2019,03,18,17,41,18.30
2019,03,18,17,42,18.20
2019,03,18,17,43,18.20
2019,03,18,17,44,18.20